NSZ3528 EKCH-EGNT

Flight info

Callsign NSZ3528
Flight time 1h 26m
Altitude 38000
Route ODDON P60 BAMPI DCT NAVIK DCT BUSOM L983 PETIL DCT SURAT DCT GOMOT DCT MADAD DCT NATEB
Aircraft B38M/M-SDE1FGHILORVWXY/HB1

Departure

Time 2026-04-25 18:40
Airport Copenhagen Kastrup Airport (EKCH)

Arrival

Time 2026-04-25 20:06
Airport Newcastle International Airport (EGNT)
Time Latitude Longitude Altitude Speed Heading
2026-04-25 17:54 55.62703 12.64167 26 ft 0 kts 33°
2026-04-25 18:30 55.62695 12.64158 26 ft 4 kts 33°
2026-04-25 18:30 55.62673 12.64132 31 ft 4 kts 33°
2026-04-25 18:30 55.62654 12.64104 29 ft 4 kts 63°
2026-04-25 18:30 55.62652 12.64064 29 ft 4 kts 116°
2026-04-25 18:31 55.62663 12.64032 31 ft 4 kts 123°
2026-04-25 18:31 55.62678 12.63992 29 ft 3 kts 123°
2026-04-25 18:31 55.62680 12.63986 28 ft 0 kts 123°
2026-04-25 18:35 55.62674 12.64004 31 ft 4 kts 123°
2026-04-25 18:35 55.62646 12.64080 30 ft 11 kts 123°
2026-04-25 18:35 55.62589 12.64233 29 ft 18 kts 123°
2026-04-25 18:36 55.62521 12.64417 29 ft 16 kts 123°
2026-04-25 18:36 55.62451 12.64476 27 ft 12 kts 195°
2026-04-25 18:36 55.62379 12.64442 26 ft 9 kts 195°
2026-04-25 18:36 55.62357 12.64432 27 ft 0 kts 195°
2026-04-25 18:37 55.62337 12.64423 26 ft 7 kts 195°
2026-04-25 18:37 55.62247 12.64380 24 ft 20 kts 196°
2026-04-25 18:37 55.62110 12.64268 28 ft 23 kts 205°
2026-04-25 18:38 55.61979 12.64159 26 ft 19 kts 205°
2026-04-25 18:38 55.61868 12.64068 26 ft 16 kts 192°
2026-04-25 18:38 55.61757 12.64079 27 ft 17 kts 176°
2026-04-25 18:38 55.61655 12.64093 29 ft 11 kts 178°
2026-04-25 18:39 55.61589 12.64016 29 ft 14 kts 221°
2026-04-25 18:39 55.61437 12.63778 27 ft 62 kts 221°
2026-04-25 18:39 55.60915 12.62968 27 ft 135 kts 220°
2026-04-25 18:39 55.60076 12.61661 206 ft 175 kts 228°
2026-04-25 18:40 55.59160 12.60213 1054 ft 175 kts 229°
2026-04-25 18:40 55.58225 12.58785 1860 ft 181 kts 230°
2026-04-25 18:40 55.57220 12.57246 2376 ft 202 kts 230°
2026-04-25 18:40 55.56215 12.55372 2807 ft 219 kts 244°
2026-04-25 18:41 55.55685 12.52820 3238 ft 228 kts 274°
2026-04-25 18:41 55.55908 12.50161 4268 ft 215 kts 289°
2026-04-25 18:41 55.56216 12.47522 5155 ft 223 kts 289°
2026-04-25 18:41 55.56513 12.44829 6142 ft 225 kts 288°
2026-04-25 18:42 55.56811 12.42072 6748 ft 230 kts 288°
2026-04-25 18:42 55.56910 12.41136 6825 ft 230 kts 288°
2026-04-25 18:42 55.57395 12.36533 6886 ft 228 kts 288°
2026-04-25 18:42 55.57682 12.33781 6882 ft 228 kts 288°
2026-04-25 18:43 55.57874 12.30976 6879 ft 233 kts 278°
2026-04-25 18:43 55.57855 12.28143 6885 ft 234 kts 277°
2026-04-25 18:43 55.57851 12.25258 6881 ft 234 kts 278°
2026-04-25 18:43 55.57856 12.22357 7085 ft 237 kts 278°
2026-04-25 18:44 55.57867 12.19475 8057 ft 235 kts 278°
2026-04-25 18:44 55.57892 12.16607 8665 ft 249 kts 281°
2026-04-25 18:44 55.58127 12.13540 9396 ft 254 kts 284°
2026-04-25 18:44 55.58384 12.10424 10273 ft 259 kts 284°
2026-04-25 18:45 55.58644 12.07159 10685 ft 278 kts 284°
2026-04-25 18:45 55.58913 12.03652 11071 ft 296 kts 283°
2026-04-25 18:45 55.59186 11.99971 11631 ft 306 kts 283°
2026-04-25 18:45 55.59460 11.96245 12535 ft 306 kts 284°
2026-04-25 18:46 55.59732 11.92511 13395 ft 308 kts 284°
2026-04-25 18:46 55.60005 11.88746 14197 ft 309 kts 285°
2026-04-25 18:46 55.60276 11.84987 15016 ft 308 kts 285°
2026-04-25 18:46 55.60546 11.81235 15835 ft 308 kts 286°
2026-04-25 18:47 55.60724 11.78742 16363 ft 308 kts 287°
2026-04-25 18:47 55.60992 11.74974 17138 ft 309 kts 287°
2026-04-25 18:47 55.61260 11.71191 17897 ft 310 kts 287°
2026-04-25 18:47 55.61528 11.67396 18565 ft 312 kts 288°
2026-04-25 18:48 55.61797 11.63573 19136 ft 315 kts 288°
2026-04-25 18:48 55.62066 11.59723 19696 ft 317 kts 288°
2026-04-25 18:48 55.62338 11.55824 20244 ft 320 kts 288°
2026-04-25 18:48 55.62610 11.51891 20800 ft 323 kts 288°
2026-04-25 18:49 55.62884 11.47916 21340 ft 326 kts 289°
2026-04-25 18:49 55.63159 11.43906 21871 ft 330 kts 289°
2026-04-25 18:49 55.63436 11.39860 22382 ft 332 kts 289°
2026-04-25 18:49 55.63713 11.35780 22901 ft 335 kts 289°
2026-04-25 18:50 55.63991 11.31664 23402 ft 339 kts 289°
2026-04-25 18:50 55.64267 11.27555 23828 ft 342 kts 290°
2026-04-25 18:50 55.64519 11.23791 24209 ft 344 kts 289°
2026-04-25 18:50 55.64800 11.19571 24611 ft 347 kts 289°
2026-04-25 18:51 55.65082 11.15311 25004 ft 350 kts 289°
2026-04-25 18:51 55.65273 11.12416 25282 ft 351 kts 289°
2026-04-25 18:51 55.65648 11.06696 25798 ft 355 kts 289°
2026-04-25 18:51 55.65932 11.02334 26172 ft 358 kts 289°
2026-04-25 18:52 55.66217 10.97939 26541 ft 361 kts 289°
2026-04-25 18:52 55.66502 10.93512 26899 ft 363 kts 289°
2026-04-25 18:52 55.66789 10.89043 27260 ft 366 kts 289°
2026-04-25 18:52 55.67075 10.84546 27620 ft 369 kts 289°
2026-04-25 18:53 55.67362 10.80018 27960 ft 371 kts 289°
2026-04-25 18:53 55.67649 10.75455 28300 ft 374 kts 289°
2026-04-25 18:53 55.67937 10.70851 28635 ft 377 kts 289°
2026-04-25 18:53 55.68224 10.66230 28966 ft 379 kts 289°
2026-04-25 18:54 55.68800 10.56870 29600 ft 385 kts 288°
2026-04-25 18:54 55.69090 10.52126 29908 ft 387 kts 288°
2026-04-25 18:54 55.69379 10.47361 30183 ft 390 kts 288°
2026-04-25 18:55 55.69663 10.42630 30428 ft 392 kts 288°
2026-04-25 18:55 55.69952 10.37807 30684 ft 395 kts 288°
2026-04-25 18:55 55.70240 10.32952 30943 ft 397 kts 287°
2026-04-25 18:55 55.70528 10.28074 31271 ft 397 kts 287°
2026-04-25 18:56 55.70812 10.23212 31629 ft 396 kts 287°
2026-04-25 18:56 55.71096 10.18350 31984 ft 396 kts 287°
2026-04-25 18:56 55.71376 10.13504 32342 ft 395 kts 287°
2026-04-25 18:56 55.71654 10.08655 32698 ft 395 kts 286°
2026-04-25 18:57 55.71930 10.03816 33048 ft 394 kts 286°
2026-04-25 18:57 55.72204 9.98980 33420 ft 394 kts 286°
2026-04-25 18:57 55.72475 9.94150 33761 ft 393 kts 286°
2026-04-25 18:57 55.72654 9.90953 33977 ft 393 kts 286°
2026-04-25 18:58 55.73011 9.84506 34327 ft 393 kts 285°
2026-04-25 18:58 55.73523 9.75171 34742 ft 396 kts 285°
2026-04-25 18:58 55.73788 9.70293 34951 ft 397 kts 285°
2026-04-25 18:59 55.74313 9.60497 35397 ft 400 kts 285°
2026-04-25 18:59 55.74833 9.50641 35847 ft 402 kts 284°
2026-04-25 19:00 55.75349 9.40736 36050 ft 404 kts 284°
2026-04-25 19:00 55.75603 9.35775 36042 ft 403 kts 284°
2026-04-25 19:01 55.76356 9.20882 36046 ft 404 kts 284°
2026-04-25 19:01 55.76847 9.10982 36036 ft 405 kts 284°
2026-04-25 19:02 55.77574 8.95994 36043 ft 406 kts 284°
2026-04-25 19:03 55.78204 8.82667 36054 ft 407 kts 283°
2026-04-25 19:03 55.78748 8.70932 36062 ft 408 kts 283°
2026-04-25 19:04 55.79431 8.55831 36076 ft 409 kts 283°
2026-04-25 19:05 55.80313 8.35674 36080 ft 410 kts 283°
2026-04-25 19:06 55.80743 8.25544 36083 ft 411 kts 283°
2026-04-25 19:06 55.81376 8.10303 36104 ft 412 kts 282°
2026-04-25 19:07 55.81989 7.95038 36102 ft 413 kts 282°
2026-04-25 19:08 55.82585 7.79777 36112 ft 415 kts 282°
2026-04-25 19:09 55.83290 7.60996 36121 ft 416 kts 282°
2026-04-25 19:10 55.83910 7.43816 36125 ft 417 kts 281°
2026-04-25 19:10 55.84271 7.33502 36132 ft 418 kts 281°
2026-04-25 19:11 55.84624 7.23171 36134 ft 418 kts 281°
2026-04-25 19:11 55.84968 7.12831 36141 ft 418 kts 281°
2026-04-25 19:12 55.85304 7.02479 36142 ft 419 kts 281°
2026-04-25 19:12 55.85632 6.92119 36147 ft 419 kts 280°
2026-04-25 19:13 55.85950 6.81765 36155 ft 420 kts 280°
2026-04-25 19:13 55.86261 6.71377 36154 ft 420 kts 280°
2026-04-25 19:14 55.86562 6.61040 36161 ft 421 kts 280°
2026-04-25 19:14 55.86856 6.50619 36166 ft 421 kts 279°
2026-04-25 19:15 55.87141 6.40200 36169 ft 422 kts 279°
2026-04-25 19:15 55.87418 6.29755 36173 ft 422 kts 279°
2026-04-25 19:16 55.87687 6.19299 36179 ft 423 kts 279°
2026-04-25 19:16 55.87947 6.08818 36183 ft 424 kts 279°
2026-04-25 19:17 55.88198 5.98324 36183 ft 424 kts 278°
2026-04-25 19:17 55.88442 5.87813 36188 ft 425 kts 278°
2026-04-25 19:18 55.88676 5.77283 36189 ft 426 kts 278°
2026-04-25 19:18 55.88901 5.66744 36197 ft 426 kts 278°
2026-04-25 19:19 55.89119 5.56180 36201 ft 426 kts 278°
2026-04-25 19:19 55.89327 5.45620 36202 ft 427 kts 277°
2026-04-25 19:20 55.89526 5.35023 36205 ft 428 kts 277°
2026-04-25 19:20 55.89715 5.24489 36207 ft 428 kts 277°
2026-04-25 19:21 55.89897 5.13863 36214 ft 429 kts 277°
2026-04-25 19:21 55.90153 4.97909 36218 ft 430 kts 277°
2026-04-25 19:22 55.90313 4.87254 36218 ft 430 kts 276°
2026-04-25 19:23 55.90534 4.71255 36220 ft 431 kts 276°
2026-04-25 19:23 55.90736 4.55256 36227 ft 432 kts 276°
2026-04-25 19:24 55.90859 4.44543 36231 ft 432 kts 276°
2026-04-25 19:25 55.91078 4.23100 36238 ft 434 kts 275°
2026-04-25 19:25 55.91173 4.12317 36040 ft 435 kts 275°
2026-04-25 19:26 55.91217 4.06932 35689 ft 433 kts 275°
2026-04-25 19:26 55.91260 4.01551 35350 ft 434 kts 274°
2026-04-25 19:26 55.91299 3.96176 35018 ft 434 kts 274°
2026-04-25 19:26 55.91336 3.90796 34683 ft 434 kts 274°
2026-04-25 19:27 55.91371 3.85479 34365 ft 435 kts 274°
2026-04-25 19:27 55.91382 3.83657 34256 ft 435 kts 274°
2026-04-25 19:27 55.91434 3.74678 33633 ft 436 kts 274°
2026-04-25 19:27 55.91462 3.69275 33265 ft 436 kts 274°
2026-04-25 19:28 55.91488 3.63854 32911 ft 437 kts 273°
2026-04-25 19:28 55.91511 3.58437 32556 ft 437 kts 273°
2026-04-25 19:28 55.91532 3.53020 32205 ft 438 kts 273°
2026-04-25 19:28 55.91610 3.47516 31859 ft 438 kts 275°
2026-04-25 19:29 55.91711 3.42163 31525 ft 438 kts 274°
2026-04-25 19:29 55.91802 3.36735 31191 ft 439 kts 274°
2026-04-25 19:29 55.91890 3.31289 30871 ft 439 kts 274°
2026-04-25 19:29 55.91974 3.25843 30548 ft 440 kts 274°
2026-04-25 19:30 55.92057 3.20383 30205 ft 440 kts 274°
2026-04-25 19:30 55.92137 3.14913 29820 ft 441 kts 274°
2026-04-25 19:30 55.92215 3.09437 29448 ft 443 kts 274°
2026-04-25 19:30 55.92291 3.03955 29076 ft 444 kts 274°
2026-04-25 19:31 55.92363 2.98441 28698 ft 445 kts 274°
2026-04-25 19:31 55.92435 2.92912 28354 ft 446 kts 274°
2026-04-25 19:31 55.92503 2.87367 28248 ft 447 kts 273°
2026-04-25 19:31 55.92547 2.83699 28266 ft 448 kts 273°
2026-04-25 19:32 55.92675 2.72547 28275 ft 450 kts 273°
2026-04-25 19:32 55.92773 2.63278 28277 ft 450 kts 273°
2026-04-25 19:33 55.92900 2.50203 28281 ft 451 kts 273°
2026-04-25 19:33 55.92997 2.39006 28279 ft 452 kts 272°
2026-04-25 19:34 55.93083 2.27783 28285 ft 452 kts 271°
2026-04-25 19:34 55.92820 2.22180 28275 ft 455 kts 260°
2026-04-25 19:34 55.91871 2.16798 28283 ft 458 kts 249°
2026-04-25 19:35 55.89542 2.06209 28283 ft 459 kts 251°
2026-04-25 19:35 55.87299 1.95539 28286 ft 459 kts 251°
2026-04-25 19:36 55.85080 1.84951 28287 ft 459 kts 251°
2026-04-25 19:36 55.82822 1.74236 28285 ft 460 kts 251°
2026-04-25 19:37 55.80582 1.63654 28290 ft 460 kts 251°
2026-04-25 19:37 55.78315 1.53000 28290 ft 461 kts 251°
2026-04-25 19:38 55.77189 1.47744 28132 ft 447 kts 251°
2026-04-25 19:38 55.76100 1.42673 27889 ft 434 kts 250°
2026-04-25 19:38 55.75037 1.37736 27649 ft 425 kts 250°
2026-04-25 19:38 55.73984 1.32843 27446 ft 424 kts 250°
2026-04-25 19:39 55.72932 1.27967 27248 ft 424 kts 250°
2026-04-25 19:39 55.71874 1.23075 27067 ft 424 kts 250°
2026-04-25 19:39 55.70816 1.18193 26908 ft 425 kts 250°
2026-04-25 19:39 55.69754 1.13302 26744 ft 425 kts 250°
2026-04-25 19:40 55.68691 1.08421 26586 ft 425 kts 250°
2026-04-25 19:40 55.67624 1.03532 26415 ft 426 kts 250°
2026-04-25 19:40 55.66553 0.98634 26211 ft 426 kts 250°
2026-04-25 19:40 55.65480 0.93740 25993 ft 426 kts 250°
2026-04-25 19:41 55.64407 0.88863 25776 ft 424 kts 250°
2026-04-25 19:41 55.63335 0.83996 25558 ft 423 kts 250°
2026-04-25 19:41 55.62263 0.79145 25339 ft 422 kts 250°
2026-04-25 19:41 55.61556 0.75948 25200 ft 421 kts 250°
2026-04-25 19:42 55.60129 0.69515 24916 ft 419 kts 250°
2026-04-25 19:42 55.59062 0.64717 24592 ft 417 kts 249°
2026-04-25 19:42 55.58000 0.59955 24196 ft 415 kts 249°
2026-04-25 19:42 55.56956 0.55283 23809 ft 413 kts 249°
2026-04-25 19:43 55.55902 0.50576 23349 ft 411 kts 249°
2026-04-25 19:43 55.54852 0.45900 22892 ft 408 kts 249°
2026-04-25 19:43 55.53811 0.41271 22448 ft 405 kts 249°
2026-04-25 19:43 55.52776 0.36679 22058 ft 402 kts 249°
2026-04-25 19:44 55.51742 0.32103 21727 ft 400 kts 249°
2026-04-25 19:44 55.50712 0.27558 21401 ft 398 kts 249°
2026-04-25 19:44 55.49685 0.23031 21074 ft 396 kts 249°
2026-04-25 19:44 55.48665 0.18543 20758 ft 394 kts 249°
2026-04-25 19:45 55.47647 0.14077 20440 ft 392 kts 249°
2026-04-25 19:45 55.46629 0.09620 20123 ft 390 kts 249°
2026-04-25 19:45 55.45619 0.05206 19820 ft 388 kts 249°
2026-04-25 19:45 55.44609 0.00802 19506 ft 386 kts 249°
2026-04-25 19:46 55.43603 -0.03576 19202 ft 384 kts 249°
2026-04-25 19:46 55.42613 -0.07876 18899 ft 383 kts 249°
2026-04-25 19:46 55.41616 -0.12197 18604 ft 381 kts 249°
2026-04-25 19:46 55.40618 -0.16514 18259 ft 379 kts 249°
2026-04-25 19:47 55.39625 -0.20800 17918 ft 377 kts 249°
2026-04-25 19:47 55.38636 -0.25060 17537 ft 375 kts 249°
2026-04-25 19:47 55.37651 -0.29293 17149 ft 372 kts 249°
2026-04-25 19:47 55.36672 -0.33498 16776 ft 370 kts 249°
2026-04-25 19:48 55.35699 -0.37662 16407 ft 368 kts 250°
2026-04-25 19:48 55.34730 -0.41806 16035 ft 366 kts 249°
2026-04-25 19:48 55.33763 -0.45933 15675 ft 364 kts 249°
2026-04-25 19:48 55.32799 -0.50035 15316 ft 361 kts 250°
2026-04-25 19:49 55.31842 -0.54103 14951 ft 359 kts 250°
2026-04-25 19:49 55.31212 -0.56777 14719 ft 358 kts 250°
2026-04-25 19:49 55.29941 -0.62160 14246 ft 355 kts 250°
2026-04-25 19:49 55.28994 -0.66163 13819 ft 353 kts 250°
2026-04-25 19:50 55.27116 -0.74076 12944 ft 349 kts 249°
2026-04-25 19:50 55.26199 -0.77929 12522 ft 348 kts 249°
2026-04-25 19:50 55.25265 -0.81849 12096 ft 346 kts 249°
2026-04-25 19:51 55.24336 -0.85736 11678 ft 345 kts 249°
2026-04-25 19:51 55.23414 -0.89594 11270 ft 336 kts 249°
2026-04-25 19:51 55.22533 -0.93264 11077 ft 317 kts 249°
2026-04-25 19:51 55.21704 -0.96718 10836 ft 301 kts 249°
2026-04-25 19:52 55.20909 -1.00019 10583 ft 289 kts 249°
2026-04-25 19:52 55.20129 -1.03261 10334 ft 288 kts 249°
2026-04-25 19:52 55.19352 -1.06483 10061 ft 287 kts 249°
2026-04-25 19:52 55.18577 -1.09691 9768 ft 285 kts 249°
2026-04-25 19:53 55.17805 -1.12884 9475 ft 284 kts 249°
2026-04-25 19:53 55.17033 -1.16073 9199 ft 283 kts 249°
2026-04-25 19:53 55.16313 -1.19044 8931 ft 282 kts 249°
2026-04-25 19:53 55.15599 -1.21983 8666 ft 281 kts 249°
2026-04-25 19:54 55.14837 -1.25119 8402 ft 279 kts 249°
2026-04-25 19:54 55.14080 -1.28226 8162 ft 278 kts 249°
2026-04-25 19:54 55.13320 -1.31343 7844 ft 277 kts 249°
2026-04-25 19:54 55.12821 -1.33386 7646 ft 276 kts 249°
2026-04-25 19:55 55.11819 -1.37484 7250 ft 270 kts 249°
2026-04-25 19:55 55.11094 -1.40445 6967 ft 259 kts 248°
2026-04-25 19:55 55.10396 -1.43294 6672 ft 250 kts 249°
2026-04-25 19:55 55.09726 -1.46022 6384 ft 241 kts 249°
2026-04-25 19:56 55.09074 -1.48676 6029 ft 236 kts 249°
2026-04-25 19:56 55.08430 -1.51291 5688 ft 238 kts 248°
2026-04-25 19:56 55.07776 -1.53942 5393 ft 237 kts 248°
2026-04-25 19:56 55.07122 -1.56594 5145 ft 234 kts 248°
2026-04-25 19:57 55.06488 -1.59162 4893 ft 231 kts 248°
2026-04-25 19:57 55.05856 -1.61723 4665 ft 229 kts 248°
2026-04-25 19:57 55.05225 -1.64268 4415 ft 227 kts 248°
2026-04-25 19:57 55.04600 -1.66790 4165 ft 227 kts 248°
2026-04-25 19:58 55.03975 -1.69313 4045 ft 226 kts 248°
2026-04-25 19:58 55.03680 -1.71964 4016 ft 224 kts 274°
2026-04-25 19:58 55.03894 -1.74646 4037 ft 219 kts 279°
2026-04-25 19:58 55.04154 -1.77183 3982 ft 210 kts 280°
2026-04-25 19:59 55.04412 -1.79680 3785 ft 208 kts 280°
2026-04-25 19:59 55.04668 -1.82167 3575 ft 208 kts 280°
2026-04-25 19:59 55.04921 -1.84638 3393 ft 208 kts 280°
2026-04-25 19:59 55.05175 -1.87128 3244 ft 209 kts 279°
2026-04-25 20:00 55.05089 -1.89623 3048 ft 208 kts 247°
2026-04-25 20:00 55.04875 -1.90378 3010 ft 207 kts 237°
2026-04-25 20:00 55.03487 -1.93518 2972 ft 190 kts 230°
2026-04-25 20:00 55.02662 -1.95302 2809 ft 189 kts 230°
2026-04-25 20:01 55.01042 -1.98876 2381 ft 189 kts 229°
2026-04-25 20:01 54.99998 -2.00186 2121 ft 181 kts 191°
2026-04-25 20:01 54.98817 -2.00002 1955 ft 172 kts 149°
2026-04-25 20:02 54.98064 -1.98496 1957 ft 168 kts 109°
2026-04-25 20:02 54.97796 -1.96504 2036 ft 171 kts 101°
2026-04-25 20:02 54.97597 -1.94462 2041 ft 171 kts 99°
2026-04-25 20:02 54.97686 -1.92404 2029 ft 171 kts 76°
2026-04-25 20:03 54.98097 -1.90448 2044 ft 172 kts 68°
2026-04-25 20:03 54.98591 -1.88546 2057 ft 173 kts 67°
2026-04-25 20:03 54.99097 -1.86643 2027 ft 173 kts 68°
2026-04-25 20:03 54.99570 -1.84865 2034 ft 149 kts 67°
2026-04-25 20:04 54.99998 -1.83255 1897 ft 144 kts 68°
2026-04-25 20:04 55.00406 -1.81728 1724 ft 142 kts 67°
2026-04-25 20:04 55.00835 -1.80138 1535 ft 141 kts 67°
2026-04-25 20:04 55.01238 -1.78581 1330 ft 141 kts 68°
2026-04-25 20:05 55.01650 -1.77025 1128 ft 142 kts 66°
2026-04-25 20:05 55.02068 -1.75474 939 ft 142 kts 68°
2026-04-25 20:05 55.02474 -1.73937 729 ft 141 kts 66°
2026-04-25 20:05 55.02886 -1.72397 536 ft 140 kts 67°
2026-04-25 20:06 55.03294 -1.70866 359 ft 139 kts 66°
2026-04-25 20:06 55.03680 -1.69404 259 ft 118 kts 64°
2026-04-25 20:06 55.03905 -1.68554 252 ft 26 kts 65°
2026-04-25 20:06 55.03997 -1.68353 251 ft 21 kts 36°
2026-04-25 20:07 55.04099 -1.68230 250 ft 14 kts 18°
2026-04-25 20:07 55.04146 -1.68331 250 ft 14 kts 247°
2026-04-25 20:07 55.04102 -1.68498 251 ft 16 kts 246°
2026-04-25 20:07 55.04052 -1.68686 252 ft 18 kts 245°
2026-04-25 20:08 55.03997 -1.68896 253 ft 20 kts 245°
2026-04-25 20:08 55.03931 -1.69141 255 ft 24 kts 245°
2026-04-25 20:08 55.03858 -1.69416 258 ft 24 kts 245°
2026-04-25 20:08 55.03799 -1.69693 260 ft 24 kts 257°
2026-04-25 20:09 55.03776 -1.69987 263 ft 22 kts 259°
2026-04-25 20:09 55.03774 -1.70173 266 ft 12 kts 275°
2026-04-25 20:09 55.03779 -1.70289 268 ft 9 kts 274°
2026-04-25 20:09 55.03781 -1.70391 270 ft 9 kts 275°
2026-04-25 20:10 55.03785 -1.70430 270 ft 10 kts 284°
2026-04-25 20:10 55.03804 -1.70642 270 ft 5 kts 255°
2026-04-25 20:10 55.03773 -1.70665 270 ft 5 kts 186°
2026-04-25 20:10 55.03745 -1.70669 270 ft 2 kts 184°
2026-04-25 20:11 55.03737 -1.70670 270 ft 1 kts 184°
2026-04-25 20:11 55.03736 -1.70670 270 ft 0 kts 184°